Kazan, Russia

11:41 PM MSK on December 05, 2019 (GMT +0300)
Kazan

Weather History for UWKD - October, 2019

Change the Weather History Date:

Tuesday, October 29, 2019

  Actual Average (WUND) Record (WUND)
Temperature  
Mean Temperature 31 °F -  
Max Temperature 34 °F - - (-1)
Min Temperature 28 °F - - (-1)
Degree Days  
Heating Degree Days 34    
Moisture  
Dew Point 25 °F    
Average Humidity 69    
Maximum Humidity 80    
Minimum Humidity 50    
Precipitation  
Precipitation 0.00 in - - ()
Sea Level Pressure  
Sea Level Pressure 29.93 in    
Wind  
Wind Speed 5 mph ()    
Max Wind Speed 11 mph    
Max Gust Speed -    
Visibility 6.2 miles    
Events      
Averages and records for this station are not official NWS values.
T = Trace of Precipitation, MM = Missing Value Source: Averaged Metar Reports

Daily Weather History Graph

Daily Weather History Graph

Search for Another Location

Airport or City:

Astronomy

Oct. 29, 2019 Rise Set
Actual Time 6:41 AM MSK 4:11 PM MSK
Civil Twilight 6:02 AM MSK 4:49 PM MSK
Nautical Twilight 5:19 AM MSK 5:33 PM MSK
Astronomical Twilight 4:36 AM MSK 6:15 PM MSK
Moon 7:52 AM MSK (10/29) 5:10 PM MSK (10/29)
Length of Visible Light 10h 47m
Length of Day
9h 29m
New Moon, 2% of the Moon is Illuminated
Oct 29
New Moon
Nov 4
First Quarter
Nov 12
Full
Nov 20
Last Quarter
Nov 26
New

Hourly Weather History & Observations

Time (MSK) Temp. Windchill Dew Point Humidity Pressure Visibility Wind Dir Wind Speed Gust Speed Precip Events Conditions
12:00 AM 36 °F - 24 °F 50% 29.82 in 6 mi North 4.5 mph - -   Overcast
12:00 AM 37.4 °F 29.9 °F 24.8 °F 60% 29.77 in 6.2 mi NNW 11.2 mph - N/A   Overcast
12:30 AM 37.4 °F 30.9 °F 24.8 °F 60% 29.80 in 6.2 mi NNW 8.9 mph - N/A   Overcast
1:00 AM 35.6 °F 28.7 °F 24.8 °F 65% 29.80 in 6.2 mi North 8.9 mph - N/A   Overcast
1:30 AM 35.6 °F 30.0 °F 24.8 °F 65% 29.83 in 6.2 mi North 6.7 mph - N/A   Overcast
2:00 AM 33.8 °F 29.7 °F 24.8 °F 70% 29.83 in 6.2 mi North 4.5 mph - N/A   Overcast
2:30 AM 35.6 °F 31.8 °F 24.8 °F 65% 29.83 in 6.2 mi North 4.5 mph - N/A   Overcast
3:00 AM 34 °F - 23 °F 54% 29.88 in 6 mi NNW 2.2 mph - -   Overcast
3:00 AM 35.6 °F 30.0 °F 24.8 °F 65% 29.83 in 6.2 mi North 6.7 mph - N/A   Overcast
3:30 AM 33.8 °F 29.7 °F 24.8 °F 70% 29.86 in 6.2 mi North 4.5 mph - N/A   Overcast
4:00 AM 33.8 °F 29.7 °F 24.8 °F 70% 29.86 in 6.2 mi North 4.5 mph - N/A   Overcast
4:30 AM 33.8 °F 27.9 °F 24.8 °F 70% 29.86 in 6.2 mi North 6.7 mph - N/A   Overcast
5:30 AM 33.8 °F 29.7 °F 24.8 °F 70% 29.89 in 6.2 mi NNE 4.5 mph - N/A   Overcast
6:00 AM 33 °F - 23 °F 55% 29.93 in 6 mi NNE 2.2 mph - -   Overcast
6:00 AM 33.8 °F 29.7 °F 23.0 °F 65% 29.89 in 6.2 mi NE 4.5 mph - N/A   Overcast
6:30 AM 33.8 °F 29.7 °F 24.8 °F 70% 29.89 in 6.2 mi ENE 4.5 mph - N/A   Overcast
7:00 AM 33.8 °F 29.7 °F 24.8 °F 70% 29.92 in 6.2 mi ENE 4.5 mph - N/A   Overcast
7:30 AM 33.8 °F 29.7 °F 24.8 °F 70% 29.92 in 6.2 mi East 4.5 mph - N/A   Overcast
8:00 AM 32.0 °F 25.7 °F 24.8 °F 75% 29.92 in 6.2 mi East 6.7 mph - N/A   Overcast
8:30 AM 32.0 °F 25.7 °F 24.8 °F 75% 29.95 in 6.2 mi East 6.7 mph - N/A   Mostly Cloudy
9:00 AM 33 °F - 25 °F 62% 29.98 in 6 mi East 2.2 mph - -   Overcast
9:00 AM 32.0 °F 24.3 °F 24.8 °F 75% 29.95 in 6.2 mi East 8.9 mph - N/A   Mostly Cloudy
9:30 AM 32.0 °F 25.7 °F 24.8 °F 75% 29.95 in 6.2 mi East 6.7 mph - N/A   Mostly Cloudy
10:00 AM 33.8 °F 29.7 °F 24.8 °F 70% 29.95 in 6.2 mi ENE 4.5 mph - N/A   Mostly Cloudy
10:30 AM 33.8 °F 29.7 °F 24.8 °F 70% 29.95 in 6.2 mi NE 4.5 mph - N/A   Mostly Cloudy
11:00 AM 33.8 °F 29.7 °F 24.8 °F 70% 29.95 in 6.2 mi ENE 4.5 mph - N/A   Mostly Cloudy
11:30 AM 33.8 °F 27.9 °F 24.8 °F 70% 29.98 in - ENE 6.7 mph - N/A   Clear
12:00 PM 33 °F - 24 °F 59% 30.01 in 6 mi East 2.2 mph - -   Partly Cloudy
12:00 PM 33.8 °F 29.7 °F 24.8 °F 70% 29.98 in 6.2 mi East 4.5 mph - N/A   Mostly Cloudy
12:30 PM 33.8 °F 29.7 °F 24.8 °F 70% 29.98 in 6.2 mi NE 4.5 mph - N/A   Mostly Cloudy
1:00 PM 33.8 °F 29.7 °F 24.8 °F 70% 29.98 in 6.2 mi NE 4.5 mph - N/A   Mostly Cloudy
1:30 PM 33.8 °F 29.7 °F 24.8 °F 70% 29.98 in 6.2 mi NE 4.5 mph - N/A   Mostly Cloudy
2:00 PM 33.8 °F 29.7 °F 24.8 °F 70% 29.98 in 6.2 mi North 4.5 mph - N/A   Mostly Cloudy
2:30 PM 33.8 °F 29.7 °F 24.8 °F 70% 29.98 in 6.2 mi North 4.5 mph - N/A   Mostly Cloudy
3:30 PM 33.8 °F - 24.8 °F 70% 29.98 in 6.2 mi Variable 2.2 mph - N/A   Mostly Cloudy
4:00 PM 33.8 °F - 24.8 °F 70% 29.98 in 6.2 mi Calm Calm - N/A   Mostly Cloudy
5:00 PM 32.0 °F - 24.8 °F 75% 29.98 in 6.2 mi Variable 2.2 mph - N/A   Mostly Cloudy
5:30 PM 33.8 °F - 24.8 °F 70% 29.98 in 6.2 mi ENE 2.2 mph - N/A   Mostly Cloudy
6:00 PM 33 °F - 23 °F 56% 30.02 in 6 mi SSE 2.2 mph - -   Overcast
6:30 PM 32.0 °F 27.6 °F 26.6 °F 80% 29.98 in 6.2 mi East 4.5 mph - N/A   Mostly Cloudy
7:30 PM 32.0 °F 25.7 °F 24.8 °F 75% 29.98 in 6.2 mi SE 6.7 mph - N/A   Mostly Cloudy
8:00 PM 32.0 °F 27.6 °F 24.8 °F 75% 29.98 in 6.2 mi WNW 4.5 mph - N/A   Mostly Cloudy
8:30 PM 32.0 °F - 26.6 °F 80% 29.98 in 6.2 mi Variable 2.2 mph - N/A   Mostly Cloudy
9:00 PM 33 °F - 24 °F 58% 30.02 in 6 mi ESE 2.2 mph - -   Mostly Cloudy
9:00 PM 32.0 °F 27.6 °F 26.6 °F 80% 29.98 in 6.2 mi NNE 4.5 mph - N/A   Mostly Cloudy
9:30 PM 30.2 °F - 24.8 °F 80% 29.98 in 6.2 mi ENE 2.2 mph - N/A   Scattered Clouds
10:00 PM 30.2 °F 25.5 °F 23.0 °F 75% 29.98 in 6.2 mi East 4.5 mph - N/A   Scattered Clouds
11:00 PM 28.4 °F 23.4 °F 23.0 °F 80% 29.98 in 6.2 mi East 4.5 mph - N/A   Partly Cloudy
11:30 PM 28.4 °F 21.4 °F 23.0 °F 80% 29.98 in - East 6.7 mph - N/A   Clear